ONEWEB-0160

Last updated on Sun Apr 25 2021 00:02:03 GMT+0000 (Coordinated Universal Time)

1 48060U 21025U 21114.58336806 -.01106662 00000-0 -59967-1 0 9997 2 48060 87.4107 339.4005 0007333 146.3917 37.0519 15.17382397 1774

Satellite not in orbit